BLUO2: Blue River, Blue, OK

Data processed at Sat Mar 10 2018 23:46


All information presented herein is the property of the government of the United States of America and may be revised or deleted at any time without prior notice.
Dissemination of this information without the expressed written consent of the Public Affairs Office, Tulsa District U.S. Army Corps of Engineers is strictly prohibited.
These data are gathered electronically and, as presented, have not undergone any form of quality control. These data are not guaranteed to be valid or correct.
Go to home page.
Go to station list.

Downstream station:


Previous Day
Next Day
Current Day
    
SHEF ID:       BLUO2     Blue River near Blue, OK
STATION TYPE:  

               PRECIP     STAGE  RIV-FLOW  BAT-LOAD
                   in        ft       cfs      volt
              Ccp-Rev   Ccp-Rev   Ccp-Rev   Ccp-Rev
(US/Central)
03/08 00:00      0.00      7.21       159     12.57
03/08 01:00      0.00      7.21       159     12.57
03/08 02:00      0.00      7.21       159     12.49
03/08 03:00      0.00      7.20       157     12.49
03/08 04:00      0.00      7.21       159     12.41
03/08 05:00      0.00      7.20       157     12.41
03/08 06:00      0.00      7.21       159     12.41
03/08 07:00      0.00      7.20       157     12.41
03/08 08:00      0.00      7.19       156     12.41
03/08 09:00      0.00      7.20       157     13.05
03/08 10:00      0.00      7.20       157     13.44
03/08 11:00      0.00      7.19       156     13.37
03/08 12:00      0.00      7.19       156     13.37
03/08 13:00      0.00      7.18       155     13.29
03/08 14:00      0.00      7.18       155     13.13
03/08 15:00      0.00      7.16       153     13.13
03/08 16:00      0.00      7.16       153     13.13
03/08 17:00      0.00      7.17       154     13.13
03/08 18:00      0.00      7.16       153     13.13
03/08 19:00      0.00      7.16       153     12.73
03/08 20:00      0.00      7.14       151     12.73
03/08 21:00      0.00      7.14       151     12.73
03/08 22:00      0.00      7.15       152     12.65
03/08 23:00      0.00      7.14       151     12.65